| time (UTC) | temp F | wind direction | speed MPH | gust MPH | rain 1hr in | rain 24hr in | rain mn in | humidity % | barometer mb |
| 20260508025646 | 61 | 286 | 5.0 | 10.0 | 0.00 | 0.00 | 0.00 | 43 | 1015.0 |
| 20260508025144 | 58 | 279 | 3.0 | 7.0 | 0.00 | 0.00 | 0.00 | 45 | 1015.0 |
| 20260508024639 | 58 | 278 | 0.0 | 1.0 | 0.00 | 0.00 | 0.00 | 45 | 1015.0 |
| 20260508024137 | 58 | 304 | 0.0 | 0.0 | 0.00 | 0.00 | 0.00 | 45 | 1014.6 |
| 20260508023633 | 58 | 304 | 0.0 | 0.0 | 0.00 | 0.00 | 0.00 | 45 | 1014.3 |
| 20260508023131 | 58 | 304 | 0.0 | 0.0 | 0.00 | 0.00 | 0.00 | 45 | 1014.5 |
| 20260508022626 | 58 | 304 | 0.0 | 0.0 | 0.00 | 0.00 | 0.00 | 45 | 1014.4 |
| 20260508022124 | 59 | 304 | 0.0 | 0.0 | 0.00 | 0.00 | 0.00 | 44 | 1014.5 |
| 20260508021619 | 60 | 305 | 0.0 | 0.0 | 0.00 | 0.00 | 0.00 | 43 | 1014.2 |
| 20260508021115 | 61 | 302 | 0.0 | 0.0 | 0.00 | 0.00 | 0.00 | 42 | 1014.0 |
| 20260508020613 | 62 | 290 | 0.0 | 0.0 | 0.00 | 0.00 | 0.00 | 41 | 1014.3 |
| 20260508020111 | 62 | 285 | 0.0 | 0.0 | 0.00 | 0.00 | 0.00 | 41 | 1014.0 |
| 20260508015608 | 63 | 290 | 1.0 | 2.0 | 0.00 | 0.00 | 0.00 | 40 | 1014.1 |
| 20260508015105 | 64 | 268 | 0.0 | 1.0 | 0.00 | 0.00 | 0.00 | 40 | 1014.0 |
| 20260508014601 | 66 | 288 | 5.0 | 7.0 | 0.00 | 0.00 | 0.00 | 37 | 1014.0 |
| 20260508014057 | 66 | 289 | 4.0 | 4.0 | 0.00 | 0.00 | 0.00 | 37 | 1014.0 |
| 20260508013553 | 66 | 301 | 2.0 | 3.0 | 0.00 | 0.00 | 0.00 | 37 | 1014.1 |
| 20260508013051 | 66 | 301 | 2.0 | 3.0 | 0.00 | 0.00 | 0.00 | 37 | 1014.2 |
| 20260508012548 | 66 | 330 | 1.0 | 6.0 | 0.00 | 0.00 | 0.00 | 37 | 1014.1 |
| 20260508012046 | 67 | 277 | 3.0 | 4.0 | 0.00 | 0.00 | 0.00 | 36 | 1014.1 |
| 20260508011544 | 68 | 330 | 3.0 | 6.0 | 0.00 | 0.00 | 0.00 | 35 | 1014.1 |
| 20260508011041 | 69 | 310 | 2.0 | 6.0 | 0.00 | 0.00 | 0.00 | 34 | 1014.1 |
| 20260508010537 | 68 | 288 | 2.0 | 6.0 | 0.00 | 0.00 | 0.00 | 34 | 1014.2 |
| 20260508010035 | 69 | 340 | 4.0 | 9.0 | 0.00 | 0.00 | 0.00 | 34 | 1014.3 |
| 20260508005531 | 69 | 15 | 1.0 | 10.0 | 0.00 | 0.00 | 0.00 | 34 | 1014.3 |
| 20260508005028 | 69 | 281 | 6.0 | 13.0 | 0.00 | 0.00 | 0.00 | 35 | 1014.2 |
| 20260508004524 | 68 | 260 | 6.0 | 10.0 | 0.00 | 0.00 | 0.00 | 36 | 1014.2 |
| 20260508004021 | 68 | 315 | 7.0 | 11.0 | 0.00 | 0.00 | 0.00 | 37 | 1014.0 |
| 20260508003517 | 69 | 283 | 9.0 | 13.0 | 0.00 | 0.00 | 0.00 | 37 | 1014.1 |
| 20260508003015 | 68 | 266 | 9.0 | 13.0 | 0.00 | 0.00 | 0.00 | 38 | 1013.9 |
| 20260508002511 | 68 | 266 | 9.0 | 14.0 | 0.00 | 0.00 | 0.00 | 38 | 1014.0 |
| 20260508002008 | 69 | 259 | 5.0 | 14.0 | 0.00 | 0.00 | 0.00 | 38 | 1014.0 |
| 20260508001504 | 69 | 276 | 7.0 | 15.0 | 0.00 | 0.00 | 0.00 | 39 | 1013.8 |
| 20260508001000 | 69 | 280 | 9.0 | 13.0 | 0.00 | 0.00 | 0.00 | 38 | 1013.8 |
| 20260508000457 | 69 | 287 | 5.0 | 13.0 | 0.00 | 0.00 | 0.00 | 39 | 1013.7 |
| 20260507235954 | 69 | 237 | 9.0 | 11.0 | 0.00 | 0.00 | 0.00 | 32 | 1014.0 |
| 20260507235450 | 68 | 261 | 4.0 | 7.0 | 0.00 | 0.00 | 0.00 | 33 | 1013.8 |
| 20260507234948 | 68 | 259 | 4.0 | 8.0 | 0.00 | 0.00 | 0.00 | 33 | 1014.0 |
| 20260507234444 | 68 | 292 | 1.0 | 2.0 | 0.00 | 0.00 | 0.00 | 34 | 1013.7 |
| 20260507233941 | 68 | 257 | 7.0 | 9.0 | 0.00 | 0.00 | 0.00 | 33 | 1013.8 |
| 20260507233438 | 68 | 272 | 4.0 | 8.0 | 0.00 | 0.00 | 0.00 | 33 | 1013.8 |
| 20260507232936 | 68 | 248 | 4.0 | 8.0 | 0.00 | 0.00 | 0.00 | 34 | 1013.8 |
| 20260507232432 | 68 | 275 | 6.0 | 9.0 | 0.00 | 0.00 | 0.00 | 33 | 1013.9 |
| 20260507231930 | 68 | 274 | 7.0 | 9.0 | 0.00 | 0.00 | 0.00 | 33 | 1013.8 |
| 20260507231425 | 68 | 286 | 4.0 | 7.0 | 0.00 | 0.00 | 0.00 | 34 | 1014.0 |
| 20260507230922 | 68 | 221 | 8.0 | 11.0 | 0.00 | 0.00 | 0.00 | 34 | 1013.9 |
| 20260507230420 | 68 | 281 | 5.0 | 9.0 | 0.00 | 0.00 | 0.00 | 34 | 1013.9 |
| 20260507225920 | 68 | 279 | 6.0 | 11.0 | 0.00 | 0.00 | 0.00 | 34 | 1013.9 |
| 20260507225417 | 68 | 272 | 8.0 | 9.0 | 0.00 | 0.00 | 0.00 | 34 | 1013.8 |
| 20260507224913 | 69 | 291 | 12.0 | 16.0 | 0.00 | 0.00 | 0.00 | 34 | 1013.9 |
| 20260507224409 | 69 | 250 | 5.0 | 9.0 | 0.00 | 0.00 | 0.00 | 33 | 1013.7 |
| 20260507223906 | 68 | 250 | 4.0 | 9.0 | 0.00 | 0.00 | 0.00 | 33 | 1013.9 |
| 20260507223401 | 68 | 290 | 6.0 | 9.0 | 0.00 | 0.00 | 0.00 | 33 | 1014.2 |
| 20260507222859 | 69 | 263 | 9.0 | 11.0 | 0.00 | 0.00 | 0.00 | 32 | 1014.0 |
| 20260507222355 | 68 | 258 | 5.0 | 7.0 | 0.00 | 0.00 | 0.00 | 33 | 1014.0 |
| 20260507221852 | 69 | 298 | 7.0 | 9.0 | 0.00 | 0.00 | 0.00 | 33 | 1013.9 |
| 20260507221349 | 69 | 275 | 6.0 | 8.0 | 0.00 | 0.00 | 0.00 | 34 | 1014.1 |
| 20260507220845 | 68 | 240 | 4.0 | 14.0 | 0.00 | 0.00 | 0.00 | 34 | 1014.1 |
| 20260507220343 | 68 | 193 | 6.0 | 8.0 | 0.00 | 0.00 | 0.00 | 35 | 1014.1 |
| 20260507215839 | 69 | 276 | 3.0 | 7.0 | 0.00 | 0.00 | 0.00 | 36 | 1014.1 |
| 20260507215336 | 68 | 258 | 2.0 | 3.0 | 0.00 | 0.00 | 0.00 | 32 | 1014.3 |
| 20260507214833 | 69 | 277 | 1.0 | 4.0 | 0.00 | 0.00 | 0.00 | 32 | 1014.2 |
| 20260507214331 | 69 | 289 | 5.0 | 6.0 | 0.00 | 0.00 | 0.00 | 32 | 1014.2 |
| 20260507213831 | 70 | 330 | 1.0 | 7.0 | 0.00 | 0.00 | 0.00 | 31 | 1014.3 |
| 20260507213329 | 68 | 324 | 4.0 | 9.0 | 0.00 | 0.00 | 0.00 | 32 | 1014.3 |
| 20260507212825 | 69 | 302 | 7.0 | 10.0 | 0.00 | 0.00 | 0.00 | 33 | 1014.5 |
| 20260507212321 | 69 | 305 | 2.0 | 8.0 | 0.00 | 0.00 | 0.00 | 32 | 1014.4 |
| 20260507211818 | 70 | 328 | 3.0 | 9.0 | 0.00 | 0.00 | 0.00 | 32 | 1014.2 |
| 20260507211315 | 70 | 329 | 6.0 | 11.0 | 0.00 | 0.00 | 0.00 | 31 | 1014.1 |
| 20260507210812 | 70 | 309 | 9.0 | 11.0 | 0.00 | 0.00 | 0.00 | 31 | 1014.5 |
| 20260507210309 | 69 | 267 | 2.0 | 9.0 | 0.00 | 0.00 | 0.00 | 33 | 1014.3 |
| 20260507205805 | 69 | 236 | 7.0 | 9.0 | 0.00 | 0.00 | 0.00 | 34 | 1014.5 |
| 20260507205306 | 71 | 284 | 6.0 | 9.0 | 0.00 | 0.00 | 0.00 | 32 | 1014.6 |
| 20260507204758 | 70 | 250 | 6.0 | 10.0 | 0.00 | 0.00 | 0.00 | 33 | 1014.5 |
| 20260507204256 | 68 | 298 | 5.0 | 10.0 | 0.00 | 0.00 | 0.00 | 35 | 1014.9 |
| 20260507203753 | 66 | 268 | 4.0 | 9.0 | 0.00 | 0.00 | 0.00 | 37 | 1014.7 |
| 20260507203251 | 67 | 318 | 11.0 | 16.0 | 0.00 | 0.00 | 0.00 | 37 | 1014.6 |
| 20260507202747 | 68 | 270 | 6.0 | 14.0 | 0.00 | 0.00 | 0.00 | 35 | 1014.7 |
| 20260507202243 | 68 | 310 | 5.0 | 10.0 | 0.00 | 0.00 | 0.00 | 35 | 1014.5 |
| 20260507201738 | 67 | 295 | 7.0 | 10.0 | 0.00 | 0.00 | 0.00 | 34 | 1014.4 |
| 20260507201235 | 67 | 322 | 5.0 | 9.0 | 0.00 | 0.00 | 0.00 | 35 | 1014.5 |
| 20260507200732 | 67 | 301 | 4.0 | 11.0 | 0.00 | 0.00 | 0.00 | 35 | 1014.4 |
| 20260507200227 | 67 | 319 | 2.0 | 8.0 | 0.00 | 0.00 | 0.00 | 36 | 1014.3 |
| 20260507195724 | 66 | 290 | 3.0 | 7.0 | 0.00 | 0.00 | 0.00 | 36 | 1014.5 |
| 20260507195221 | 65 | 308 | 1.0 | 6.0 | 0.00 | 0.00 | 0.00 | 38 | 1014.3 |
| 20260507194718 | 64 | 283 | 6.0 | 9.0 | 0.00 | 0.00 | 0.00 | 39 | 1014.4 |
| 20260507194214 | 65 | 255 | 4.0 | 7.0 | 0.00 | 0.00 | 0.00 | 43 | 1014.4 |
| 20260507193711 | 67 | 280 | 5.0 | 8.0 | 0.00 | 0.00 | 0.00 | 34 | 1014.2 |
| 20260507193208 | 68 | 261 | 11.0 | 15.0 | 0.00 | 0.00 | 0.00 | 32 | 1014.2 |
| 20260507192704 | 69 | 284 | 9.0 | 11.0 | 0.00 | 0.00 | 0.00 | 32 | 1014.1 |
| 20260507192201 | 71 | 324 | 6.0 | 11.0 | 0.00 | 0.00 | 0.00 | 31 | 1014.4 |
| 20260507191656 | 70 | 335 | 1.0 | 7.0 | 0.00 | 0.00 | 0.00 | 32 | 1014.3 |
| 20260507191154 | 68 | 302 | 2.0 | 4.0 | 0.00 | 0.00 | 0.00 | 33 | 1014.3 |
| 20260507190651 | 67 | 280 | 4.0 | 7.0 | 0.00 | 0.00 | 0.00 | 32 | 1014.4 |
| 20260507190149 | 68 | 301 | 2.0 | 7.0 | 0.00 | 0.00 | 0.00 | 32 | 1014.1 |
| 20260507185648 | 68 | 296 | 4.0 | 7.0 | 0.00 | 0.00 | 0.00 | 31 | 1014.2 |
| 20260507185144 | 70 | 324 | 3.0 | 8.0 | 0.00 | 0.00 | 0.00 | 32 | 1014.4 |
| 20260507184642 | 70 | 349 | 2.0 | 9.0 | 0.00 | 0.00 | 0.00 | 33 | 1014.4 |
| 20260507184140 | 68 | 317 | 5.0 | 16.0 | 0.00 | 0.00 | 0.00 | 33 | 1014.4 |
| 20260507183636 | 68 | 339 | 2.0 | 6.0 | 0.00 | 0.00 | 0.00 | 34 | 1014.5 |
| 20260507183133 | 68 | 299 | 2.0 | 7.0 | 0.00 | 0.00 | 0.00 | 33 | 1014.9 |
| 20260507182629 | 70 | 314 | 1.0 | 6.0 | 0.00 | 0.00 | 0.00 | 33 | 1014.6 |
| 20260507182125 | 70 | 337 | 0.0 | 4.0 | 0.00 | 0.00 | 0.00 | 32 | 1014.3 |
| 20260507181622 | 69 | 352 | 5.0 | 8.0 | 0.00 | 0.00 | 0.00 | 33 | 1014.6 |
| 20260507181118 | 67 | 306 | 7.0 | 13.0 | 0.00 | 0.00 | 0.00 | 34 | 1014.7 |
| 20260507180615 | 69 | 344 | 4.0 | 10.0 | 0.00 | 0.00 | 0.00 | 33 | 1014.6 |
| 20260507180112 | 69 | 248 | 8.0 | 9.0 | 0.00 | 0.00 | 0.00 | 33 | 1014.6 |
| 20260507175608 | 68 | 331 | 2.0 | 10.0 | 0.00 | 0.00 | 0.00 | 34 | 1014.6 |
| 20260507175106 | 68 | 336 | 8.0 | 10.0 | 0.00 | 0.00 | 0.00 | 33 | 1014.7 |
| 20260507174602 | 67 | 335 | 4.0 | 7.0 | 0.00 | 0.00 | 0.00 | 35 | 1015.0 |
| 20260507174100 | 67 | 315 | 3.0 | 4.0 | 0.00 | 0.00 | 0.00 | 34 | 1015.0 |
| 20260507173557 | 68 | 35 | 2.0 | 9.0 | 0.00 | 0.00 | 0.00 | 34 | 1014.9 |
| 20260507173054 | 68 | 336 | 7.0 | 11.0 | 0.00 | 0.00 | 0.00 | 34 | 1014.9 |
| 20260507172550 | 70 | 294 | 2.0 | 7.0 | 0.00 | 0.00 | 0.00 | 32 | 1015.0 |
| 20260507172047 | 68 | 345 | 6.0 | 11.0 | 0.00 | 0.00 | 0.00 | 34 | 1015.1 |
| 20260507171542 | 68 | 301 | 3.0 | 9.0 | 0.00 | 0.00 | 0.00 | 36 | 1015.1 |
| 20260507171040 | 66 | 341 | 4.0 | 8.0 | 0.00 | 0.00 | 0.00 | 36 | 1014.9 |
| 20260507170536 | 67 | 249 | 11.0 | 13.0 | 0.00 | 0.00 | 0.00 | 35 | 1015.0 |
| 20260507170033 | 66 | 339 | 3.0 | 4.0 | 0.00 | 0.00 | 0.00 | 36 | 1015.0 |
| 20260507165529 | 67 | 248 | 6.0 | 7.0 | 0.00 | 0.00 | 0.00 | 35 | 1015.0 |
| 20260507165026 | 66 | 314 | 0.0 | 2.0 | 0.00 | 0.00 | 0.00 | 35 | 1014.9 |
| 20260507164522 | 67 | 249 | 6.0 | 8.0 | 0.00 | 0.00 | 0.00 | 36 | 1015.0 |
| 20260507164019 | 66 | 282 | 3.0 | 8.0 | 0.00 | 0.00 | 0.00 | 37 | 1015.0 |
| 20260507163516 | 65 | 235 | 1.0 | 6.0 | 0.00 | 0.00 | 0.00 | 37 | 1015.0 |
| 20260507163014 | 64 | 236 | 3.0 | 9.0 | 0.00 | 0.00 | 0.00 | 37 | 1015.2 |
| 20260507162509 | 63 | 231 | 7.0 | 8.0 | 0.00 | 0.00 | 0.00 | 37 | 1015.0 |
| 20260507162006 | 63 | 241 | 5.0 | 8.0 | 0.00 | 0.00 | 0.00 | 38 | 1015.2 |
| 20260507161502 | 62 | 243 | 6.0 | 8.0 | 0.00 | 0.00 | 0.00 | 38 | 1015.0 |
| 20260507160959 | 62 | 263 | 4.0 | 7.0 | 0.00 | 0.00 | 0.00 | 40 | 1015.2 |
| 20260507160455 | 61 | 246 | 6.0 | 9.0 | 0.00 | 0.00 | 0.00 | 40 | 1015.2 |
| 20260507155951 | 60 | 225 | 5.0 | 6.0 | 0.00 | 0.00 | 0.00 | 41 | 1015.2 |
| 20260507155447 | 61 | 230 | 6.0 | 7.0 | 0.00 | 0.00 | 0.00 | 38 | 1015.3 |
| 20260507154944 | 61 | 247 | 1.0 | 4.0 | 0.00 | 0.00 | 0.00 | 40 | 1015.3 |
| 20260507154441 | 59 | 257 | 2.0 | 6.0 | 0.00 | 0.00 | 0.00 | 44 | 1015.4 |
| 20260507153938 | 57 | 228 | 7.0 | 8.0 | 0.00 | 0.00 | 0.00 | 45 | 1015.3 |
| 20260507153435 | 57 | 232 | 2.0 | 4.0 | 0.00 | 0.00 | 0.00 | 46 | 1015.2 |
| 20260507152931 | 57 | 265 | 0.0 | 2.0 | 0.00 | 0.00 | 0.00 | 49 | 1015.4 |
| 20260507152427 | 56 | 242 | 2.0 | 7.0 | 0.00 | 0.00 | 0.00 | 49 | 1015.5 |
| 20260507151923 | 56 | 225 | 5.0 | 8.0 | 0.00 | 0.00 | 0.00 | 49 | 1015.4 |
| 20260507151420 | 57 | 247 | 1.0 | 2.0 | 0.00 | 0.00 | 0.00 | 44 | 1015.4 |
| 20260507150917 | 57 | 261 | 0.0 | 1.0 | 0.00 | 0.00 | 0.00 | 45 | 1015.4 |
| 20260507150414 | 56 | 254 | 2.0 | 3.0 | 0.00 | 0.00 | 0.00 | 47 | 1015.7 |
| 20260507145910 | 55 | 254 | 4.0 | 6.0 | 0.00 | 0.00 | 0.00 | 52 | 1015.4 |
| 20260507145406 | 55 | 275 | 0.0 | 2.0 | 0.00 | 0.00 | 0.00 | 49 | 1015.7 |
| 20260507144903 | 53 | 251 | 0.0 | 2.0 | 0.00 | 0.00 | 0.00 | 52 | 1015.5 |
| 20260507144400 | 53 | 263 | 4.0 | 6.0 | 0.00 | 0.00 | 0.00 | 52 | 1015.6 |
| 20260507143857 | 53 | 243 | 0.0 | 2.0 | 0.00 | 0.00 | 0.00 | 51 | 1015.6 |
| 20260507143354 | 52 | 254 | 1.0 | 6.0 | 0.00 | 0.00 | 0.00 | 52 | 1015.4 |
| 20260507142850 | 53 | 261 | 0.0 | 3.0 | 0.00 | 0.00 | 0.00 | 50 | 1015.4 |
| 20260507142347 | 53 | 275 | 2.0 | 6.0 | 0.00 | 0.00 | 0.00 | 46 | 1015.4 |
| 20260507141844 | 53 | 279 | 1.0 | 3.0 | 0.00 | 0.00 | 0.00 | 47 | 1015.5 |
| 20260507141340 | 52 | 251 | 2.0 | 4.0 | 0.00 | 0.00 | 0.00 | 47 | 1015.4 |
| 20260507140837 | 52 | 252 | 1.0 | 3.0 | 0.00 | 0.00 | 0.00 | 47 | 1015.3 |
| 20260507140334 | 52 | 263 | 1.0 | 2.0 | 0.00 | 0.00 | 0.00 | 47 | 1015.2 |
| 20260507135832 | 51 | 250 | 0.0 | 3.0 | 0.00 | 0.00 | 0.00 | 48 | 1015.2 |
| 20260507135328 | 51 | 278 | 0.0 | 1.0 | 0.00 | 0.00 | 0.00 | 48 | 1015.1 |
| 20260507134826 | 51 | 298 | 0.0 | 2.0 | 0.00 | 0.00 | 0.00 | 48 | 1015.1 |
| 20260507134321 | 51 | 346 | 3.0 | 4.0 | 0.00 | 0.00 | 0.00 | 48 | 1015.1 |
| 20260507133817 | 50 | 327 | 5.0 | 6.0 | 0.00 | 0.00 | 0.00 | 47 | 1015.0 |
| 20260507133313 | 49 | 321 | 2.0 | 2.0 | 0.00 | 0.00 | 0.00 | 48 | 1014.7 |
| 20260507132812 | 49 | 349 | 2.0 | 4.0 | 0.00 | 0.00 | 0.00 | 49 | 1014.9 |
| 20260507132308 | 48 | 351 | 3.0 | 4.0 | 0.00 | 0.00 | 0.00 | 49 | 1014.7 |
| 20260507131805 | 48 | 341 | 3.0 | 7.0 | 0.00 | 0.00 | 0.00 | 49 | 1014.5 |
| 20260507131302 | 48 | 355 | 4.0 | 7.0 | 0.00 | 0.00 | 0.00 | 49 | 1014.5 |
| 20260507130758 | 47 | 333 | 2.0 | 7.0 | 0.00 | 0.00 | 0.00 | 49 | 1014.4 |
| 20260507130256 | 46 | 338 | 5.0 | 6.0 | 0.00 | 0.00 | 0.00 | 50 | 1014.5 |
| 20260507125755 | 46 | 341 | 4.0 | 6.0 | 0.00 | 0.00 | 0.00 | 50 | 1014.5 |
| 20260507125252 | 46 | 325 | 3.0 | 9.0 | 0.00 | 0.00 | 0.00 | 48 | 1014.4 |
| 20260507124749 | 46 | 330 | 1.0 | 2.0 | 0.00 | 0.00 | 0.00 | 48 | 1014.4 |
| 20260507124245 | 46 | 328 | 2.0 | 4.0 | 0.00 | 0.00 | 0.00 | 48 | 1014.3 |
| 20260507123744 | 45 | 322 | 1.0 | 3.0 | 0.00 | 0.00 | 0.00 | 50 | 1014.3 |
| 20260507123241 | 45 | 308 | 0.0 | 2.0 | 0.00 | 0.00 | 0.00 | 51 | 1014.3 |
| 20260507122736 | 44 | 307 | 0.0 | 1.0 | 0.00 | 0.00 | 0.00 | 52 | 1014.0 |
| 20260507122232 | 44 | 303 | 0.0 | 2.0 | 0.00 | 0.00 | 0.00 | 52 | 1013.8 |
| 20260507121728 | 44 | 314 | 0.0 | 0.0 | 0.00 | 0.00 | 0.00 | 53 | 1013.9 |
| 20260507121224 | 44 | 352 | 1.0 | 2.0 | 0.00 | 0.00 | 0.00 | 53 | 1014.1 |
| 20260507120720 | 44 | 353 | 0.0 | 0.0 | 0.00 | 0.00 | 0.00 | 53 | 1013.8 |
| 20260507120218 | 44 | 346 | 0.0 | 3.0 | 0.00 | 0.00 | 0.00 | 54 | 1013.8 |
| 20260507115714 | 43 | 339 | 0.0 | 1.0 | 0.00 | 0.00 | 0.00 | 54 | 1013.8 |
| 20260507115209 | 42 | 352 | 0.0 | 3.0 | 0.00 | 0.00 | 0.00 | 55 | 1014.0 |
| 20260507114705 | 43 | 313 | 0.0 | 0.0 | 0.00 | 0.00 | 0.00 | 56 | 1013.8 |
| 20260507114203 | 42 | 289 | 0.0 | 0.0 | 0.00 | 0.00 | 0.00 | 56 | 1013.5 |
| 20260507113700 | 43 | 286 | 0.0 | 0.0 | 0.00 | 0.00 | 0.00 | 56 | 1014.0 |
| 20260507113157 | 42 | 280 | 0.0 | 0.0 | 0.00 | 0.00 | 0.00 | 57 | 1013.8 |
| 20260507112655 | 43 | 285 | 0.0 | 0.0 | 0.00 | 0.00 | 0.00 | 55 | 1013.7 |
| 20260507112151 | 43 | 328 | 0.0 | 1.0 | 0.00 | 0.00 | 0.00 | 55 | 1013.8 |
| 20260507111649 | 44 | 336 | 0.0 | 0.0 | 0.00 | 0.00 | 0.00 | 53 | 1013.5 |
| 20260507111145 | 43 | 349 | 0.0 | 2.0 | 0.00 | 0.00 | 0.00 | 52 | 1013.9 |
| 20260507110641 | 43 | 343 | 0.0 | 1.0 | 0.00 | 0.00 | 0.00 | 57 | 1013.9 |
| 20260507110138 | 43 | 254 | 0.0 | 0.0 | 0.00 | 0.00 | 0.00 | 59 | 1013.2 |
| 20260507105635 | 43 | 255 | 0.0 | 1.0 | 0.00 | 0.00 | 0.00 | 56 | 1013.2 |
| 20260507105131 | 43 | 269 | 0.0 | 0.0 | 0.00 | 0.00 | 0.00 | 57 | 1013.3 |
| 20260507104628 | 44 | 269 | 0.0 | 0.0 | 0.00 | 0.00 | 0.00 | 53 | 1013.3 |
| 20260507104125 | 44 | 274 | 0.0 | 0.0 | 0.00 | 0.00 | 0.00 | 55 | 1013.3 |
| 20260507103621 | 44 | 271 | 0.0 | 0.0 | 0.00 | 0.00 | 0.00 | 53 | 1013.3 |
| 20260507103118 | 44 | 290 | 0.0 | 0.0 | 0.00 | 0.00 | 0.00 | 51 | 1013.2 |
| 20260507102614 | 43 | 259 | 0.0 | 0.0 | 0.00 | 0.00 | 0.00 | 53 | 1013.8 |
| 20260507102110 | 45 | 217 | 1.0 | 2.0 | 0.00 | 0.00 | 0.00 | 52 | 1013.5 |
| 20260507101607 | 45 | 303 | 0.0 | 0.0 | 0.00 | 0.00 | 0.00 | 50 | 1013.4 |
| 20260507101102 | 45 | 342 | 0.0 | 0.0 | 0.00 | 0.00 | 0.00 | 50 | 1013.7 |
| 20260507100600 | 45 | 351 | 0.0 | 1.0 | 0.00 | 0.00 | 0.00 | 50 | 1013.3 |
| 20260507100058 | 45 | 343 | 0.0 | 0.0 | 0.00 | 0.00 | 0.00 | 51 | 1013.7 |
| 20260507095555 | 45 | 323 | 0.0 | 0.0 | 0.00 | 0.00 | 0.00 | 51 | 1013.3 |
| 20260507095052 | 44 | 342 | 0.0 | 0.0 | 0.00 | 0.00 | 0.00 | 53 | 1013.5 |
| 20260507094548 | 45 | 346 | 0.0 | 0.0 | 0.00 | 0.00 | 0.00 | 53 | 1013.4 |
| 20260507094045 | 45 | 320 | 0.0 | 0.0 | 0.00 | 0.00 | 0.00 | 52 | 1013.2 |
| 20260507093543 | 45 | 325 | 0.0 | 0.0 | 0.00 | 0.00 | 0.00 | 53 | 1013.2 |
| 20260507093042 | 45 | 339 | 0.0 | 0.0 | 0.00 | 0.00 | 0.00 | 53 | 1013.0 |
| 20260507092537 | 46 | 357 | 0.0 | 1.0 | 0.00 | 0.00 | 0.00 | 53 | 1013.0 |
| 20260507092034 | 46 | 56 | 0.0 | 2.0 | 0.00 | 0.00 | 0.00 | 48 | 1012.9 |
| 20260507091531 | 47 | 10 | 0.0 | 0.0 | 0.00 | 0.00 | 0.00 | 50 | 1012.6 |
| 20260507091027 | 46 | 338 | 0.0 | 0.0 | 0.00 | 0.00 | 0.00 | 52 | 1012.4 |
| 20260507090523 | 45 | 330 | 0.0 | 0.0 | 0.00 | 0.00 | 0.00 | 54 | 1012.6 |
| 20260507090020 | 45 | 343 | 0.0 | 0.0 | 0.00 | 0.00 | 0.00 | 55 | 1012.6 |
| 20260507085517 | 44 | 344 | 0.0 | 0.0 | 0.00 | 0.00 | 0.00 | 57 | 1012.4 |
| 20260507085014 | 44 | 296 | 0.0 | 0.0 | 0.00 | 0.00 | 0.00 | 56 | 1012.7 |
| 20260507084510 | 46 | 249 | 0.0 | 0.0 | 0.00 | 0.00 | 0.00 | 56 | 1012.4 |
| 20260507084008 | 48 | 318 | 0.0 | 0.0 | 0.00 | 0.00 | 0.00 | 51 | 1012.2 |
| 20260507083503 | 46 | 331 | 0.0 | 0.0 | 0.00 | 0.00 | 0.00 | 53 | 1012.2 |
| 20260507083000 | 46 | 308 | 0.0 | 0.0 | 0.00 | 0.00 | 0.00 | 53 | 1012.4 |
| 20260507082457 | 46 | 294 | 0.0 | 0.0 | 0.00 | 0.00 | 0.00 | 54 | 1012.2 |
| 20260507081953 | 47 | 303 | 0.0 | 0.0 | 0.00 | 0.00 | 0.00 | 52 | 1012.2 |
| 20260507081449 | 49 | 331 | 0.0 | 0.0 | 0.00 | 0.00 | 0.00 | 50 | 1012.1 |
| 20260507080947 | 51 | 7 | 1.0 | 3.0 | 0.00 | 0.00 | 0.00 | 46 | 1012.1 |
| 20260507080442 | 50 | 51 | 2.0 | 4.0 | 0.00 | 0.00 | 0.00 | 47 | 1011.9 |
| 20260507075937 | 48 | 352 | 0.0 | 0.0 | 0.00 | 0.00 | 0.00 | 51 | 1011.7 |
| 20260507075434 | 50 | 8 | 0.0 | 0.0 | 0.00 | 0.00 | 0.00 | 49 | 1011.7 |
| 20260507074931 | 48 | 47 | 0.0 | 1.0 | 0.00 | 0.00 | 0.00 | 51 | 1011.7 |
| 20260507074427 | 51 | 339 | 1.0 | 2.0 | 0.00 | 0.00 | 0.00 | 47 | 1011.8 |
| 20260507073926 | 51 | 75 | 0.0 | 3.0 | 0.00 | 0.00 | 0.00 | 46 | 1011.5 |
| 20260507073422 | 52 | 74 | 0.0 | 3.0 | 0.00 | 0.00 | 0.00 | 44 | 1012.0 |
| 20260507072919 | 53 | 50 | 0.0 | 0.0 | 0.00 | 0.00 | 0.00 | 43 | 1011.8 |
| 20260507072416 | 54 | 62 | 0.0 | 1.0 | 0.00 | 0.00 | 0.00 | 41 | 1011.8 |
| 20260507071914 | 55 | 77 | 3.0 | 6.0 | 0.00 | 0.00 | 0.00 | 40 | 1011.8 |
| 20260507071411 | 56 | 74 | 8.0 | 10.0 | 0.00 | 0.00 | 0.00 | 39 | 1011.7 |
| 20260507070907 | 55 | 67 | 7.0 | 9.0 | 0.00 | 0.00 | 0.00 | 40 | 1011.6 |
| 20260507070404 | 55 | 68 | 4.0 | 9.0 | 0.00 | 0.00 | 0.00 | 40 | 1011.6 |
| 20260507065901 | 56 | 83 | 6.0 | 8.0 | 0.00 | 0.00 | 0.00 | 39 | 1011.8 |
| 20260507065357 | 55 | 66 | 1.0 | 4.0 | 0.00 | 0.00 | 0.00 | 39 | 1011.9 |
| 20260507064855 | 55 | 326 | 0.0 | 3.0 | 0.00 | 0.00 | 0.00 | 41 | 1011.9 |
| 20260507064353 | 56 | 89 | 2.0 | 7.0 | 0.00 | 0.00 | 0.00 | 38 | 1011.7 |
| 20260507063851 | 55 | 269 | 0.0 | 0.0 | 0.00 | 0.00 | 0.00 | 39 | 1012.1 |
| 20260507063348 | 56 | 325 | 0.0 | 1.0 | 0.00 | 0.00 | 0.00 | 38 | 1012.3 |
| 20260507062844 | 56 | 334 | 0.0 | 6.0 | 0.00 | 0.00 | 0.00 | 36 | 1012.0 |
| 20260507062341 | 57 | 74 | 8.0 | 9.0 | 0.00 | 0.00 | 0.00 | 34 | 1012.1 |
| 20260507061839 | 58 | 38 | 2.0 | 10.0 | 0.00 | 0.00 | 0.00 | 33 | 1011.8 |
| 20260507061337 | 58 | 73 | 7.0 | 15.0 | 0.00 | 0.00 | 0.00 | 33 | 1011.1 |
| 20260507060835 | 58 | 70 | 6.0 | 8.0 | 0.00 | 0.00 | 0.00 | 32 | 1010.8 |
| 20260507060332 | 58 | 42 | 7.0 | 10.0 | 0.00 | 0.00 | 0.00 | 32 | 1010.7 |
| 20260507055828 | 57 | 36 | 4.0 | 7.0 | 0.00 | 0.00 | 0.00 | 33 | 1010.8 |
| 20260507055323 | 58 | 72 | 6.0 | 8.0 | 0.00 | 0.00 | 0.00 | 31 | 1010.6 |
| 20260507054820 | 58 | 67 | 4.0 | 6.0 | 0.00 | 0.00 | 0.00 | 30 | 1010.3 |
| 20260507054316 | 58 | 77 | 4.0 | 7.0 | 0.00 | 0.00 | 0.00 | 30 | 1010.4 |
| 20260507053814 | 58 | 75 | 6.0 | 8.0 | 0.00 | 0.00 | 0.00 | 29 | 1010.4 |
| 20260507053311 | 59 | 74 | 6.0 | 11.0 | 0.00 | 0.00 | 0.00 | 29 | 1010.4 |
| 20260507052810 | 59 | 46 | 4.0 | 4.0 | 0.00 | 0.00 | 0.00 | 29 | 1010.5 |
| 20260507052307 | 59 | 59 | 3.0 | 6.0 | 0.00 | 0.00 | 0.00 | 30 | 1010.4 |
| 20260507051804 | 59 | 64 | 4.0 | 7.0 | 0.00 | 0.00 | 0.00 | 30 | 1010.3 |
| 20260507051302 | 60 | 80 | 1.0 | 2.0 | 0.00 | 0.00 | 0.00 | 29 | 1010.3 |
| 20260507050758 | 60 | 94 | 2.0 | 2.0 | 0.00 | 0.00 | 0.00 | 29 | 1010.0 |
| 20260507050254 | 60 | 107 | 1.0 | 2.0 | 0.00 | 0.00 | 0.00 | 28 | 1010.0 |
| 20260507045751 | 60 | 88 | 1.0 | 3.0 | 0.00 | 0.00 | 0.00 | 28 | 1009.9 |
| 20260507045247 | 60 | 70 | 2.0 | 3.0 | 0.00 | 0.00 | 0.00 | 28 | 1010.0 |
| 20260507044745 | 60 | 79 | 0.0 | 0.0 | 0.00 | 0.00 | 0.00 | 28 | 1010.3 |
| 20260507044241 | 60 | 74 | 0.0 | 0.0 | 0.00 | 0.00 | 0.00 | 28 | 1010.2 |
| 20260507043737 | 60 | 76 | 0.0 | 2.0 | 0.00 | 0.00 | 0.00 | 29 | 1009.9 |
| 20260507043235 | 60 | 73 | 3.0 | 4.0 | 0.00 | 0.00 | 0.00 | 28 | 1010.0 |
| 20260507042731 | 60 | 73 | 2.0 | 3.0 | 0.00 | 0.00 | 0.00 | 28 | 1010.2 |
| 20260507042226 | 61 | 103 | 0.0 | 2.0 | 0.00 | 0.00 | 0.00 | 29 | 1010.3 |
| 20260507041723 | 60 | 70 | 3.0 | 3.0 | 0.00 | 0.00 | 0.00 | 28 | 1010.0 |
| 20260507041220 | 62 | 83 | 0.0 | 1.0 | 0.00 | 0.00 | 0.00 | 28 | 1010.2 |
| 20260507040717 | 63 | 74 | 2.0 | 6.0 | 0.00 | 0.00 | 0.00 | 26 | 1010.2 |
| 20260507040213 | 60 | 54 | 0.0 | 0.0 | 0.00 | 0.00 | 0.00 | 28 | 1010.4 |
| 20260507035709 | 61 | 48 | 0.0 | 1.0 | 0.00 | 0.00 | 0.00 | 28 | 1010.5 |
| 20260507035159 | 61 | 10 | 1.0 | 7.0 | 0.00 | 0.00 | 0.00 | 28 | 1010.7 |
| 20260507034656 | 63 | 27 | 0.0 | 9.0 | 0.00 | 0.00 | 0.00 | 28 | 1010.6 |
| 20260507034153 | 64 | 259 | 0.0 | 0.0 | 0.00 | 0.00 | 0.00 | 28 | 1010.6 |
| 20260507033652 | 61 | 333 | 1.0 | 2.0 | 0.00 | 0.00 | 0.00 | 29 | 1010.5 |
| 20260507033148 | 61 | 14 | 0.0 | 0.0 | 0.00 | 0.00 | 0.00 | 28 | 1010.5 |
| 20260507032646 | 60 | 357 | 0.0 | 0.0 | 0.00 | 0.00 | 0.00 | 29 | 1010.7 |
| 20260507032142 | 59 | 327 | 0.0 | 0.0 | 0.00 | 0.00 | 0.00 | 30 | 1010.7 |
| 20260507031639 | 61 | 262 | 0.0 | 1.0 | 0.00 | 0.00 | 0.00 | 30 | 1010.6 |
| 20260507031135 | 61 | 263 | 0.0 | 0.0 | 0.00 | 0.00 | 0.00 | 28 | 1010.5 |
| 20260507030632 | 63 | 239 | 0.0 | 0.0 | 0.00 | 0.00 | 0.00 | 28 | 1010.3 |
| 20260507030130 | 63 | 141 | 0.0 | 0.0 | 0.00 | 0.00 | 0.00 | 26 | 1010.0 |